Location: Newark
(53.7833°N, 9.4833°E)
Time: 04:22:37
(UTC+00:00)

Envisat - Pass Details

Date: 12 December 2019
Orbit: 764 x 766 km, 98.1° (Epoch: 18 January)

Event Time Altitude Azimuth Distance (km) Brightness Sun altitude
Rises 16:24:08 0° 145° (SE) 3,226 6.1 -11.2°
Reaches altitude 10° 16:26:29 10° 140° (SE) 2,303 5.3 -11.6°
Maximum altitude 16:31:22 50° 67° (ENE) 978 3.2 -12.2°
Drops below altitude 10° 16:36:17 10° 353° (N) 2,318 5.3 -12.9°
Sets 16:38:39 0° 348° (NNW) 3,249 6.2 -13.2°
